DW1028 Weather Reports


time (UTC)temp
F
wind
direction
speed
knots
gust
knots
rain 1hr
in
rain 24hr
in
rain mn
in
humidity
%
barometer
mb
20260508043054 59 255 2.6 7.0 0.00 0.00 0.00 28 1015.2
20260508041549 60 274 4.3 9.6 0.00 0.00 0.00 27 1015.1
20260508040054 61 276 3.5 11.3 0.00 0.00 0.00 26 1015.0
20260508034545 61 263 7.8 11.3 0.00 0.00 0.00 25 1014.7
20260508033049 61 267 6.1 13.0 0.00 0.00 0.00 25 1014.8
20260508031553 62 279 2.6 12.2 0.00 0.00 0.00 25 1014.6
20260508030052 63 295 7.8 12.2 0.00 0.00 0.00 24 1014.4
20260508024554 64 271 10.4 17.4 0.00 0.00 0.00 23 1014.3
20260508023054 64 259 8.7 14.8 0.00 0.00 0.00 22 1014.1
20260508021555 65 264 10.4 16.5 0.00 0.00 0.00 24 1014.4
20260508020057 65 252 9.6 17.4 0.00 0.00 0.00 23 1014.3
20260508014557 66 277 9.6 17.4 0.00 0.00 0.00 23 1014.3
20260508013050 67 248 10.4 20.0 0.00 0.00 0.00 21 1014.1
20260508011549 68 284 11.3 22.6 0.00 0.00 0.00 19 1014.1
20260508010048 70 306 12.2 18.2 0.00 0.00 0.00 18 1014.1
20260508004547 69 294 10.4 16.5 0.00 0.00 0.00 22 1014.2
20260508003054 69 288 8.7 14.8 0.00 0.00 0.00 22 1014.3
20260508001549 70 267 10.4 15.6 0.00 0.00 0.00 21 1014.3
20260508000059 71 291 9.6 15.6 0.00 0.00 0.00 22 1014.4
20260507234545 71 276 10.4 15.6 0.00 0.00 0.00 21 1014.3
20260507233048 71 287 9.6 13.9 0.00 0.00 0.00 25 1014.3
20260507231551 72 279 7.8 14.8 0.00 0.00 0.00 26 1014.4
20260507230052 72 248 8.7 13.9 0.00 0.00 0.00 24 1014.6
20260507224559 72 273 8.7 16.5 0.00 0.00 0.00 21 1014.7
20260507223055 71 297 10.4 16.5 0.00 0.00 0.00 21 1014.9
20260507221551 70 314 9.6 17.4 0.00 0.00 0.00 19 1015.0
20260507220053 71 317 10.4 14.8 0.00 0.00 0.00 19 1015.0
20260507214602 70 318 9.6 16.5 0.00 0.00 0.00 20 1015.2
20260507213048 71 347 9.6 14.8 0.00 0.00 0.00 23 1015.3
20260507211551 71 294 8.7 15.6 0.00 0.00 0.00 25 1015.3
20260507210059 71 305 12.2 17.4 0.00 0.00 0.00 24 1015.5
20260507204556 70 290 8.7 17.4 0.00 0.00 0.00 24 1015.7
20260507203103 71 292 11.3 17.4 0.00 0.00 0.00 26 1015.7
20260507201556 71 279 10.4 21.7 0.00 0.00 0.00 25 1015.8
20260507200104 70 269 7.8 13.0 0.00 0.00 0.00 29 1015.9
20260507194552 70 271 10.4 17.4 0.00 0.00 0.00 29 1016.0
20260507193049 69 217 6.1 18.2 0.00 0.00 0.00 28 1016.1
20260507191548 69 231 7.8 18.2 0.00 0.00 0.00 28 1016.1
20260507190052 68 248 9.6 15.6 0.00 0.00 0.00 29 1016.2
20260507184559 67 259 7.8 15.6 0.00 0.00 0.00 30 1016.4
20260507183052 66 224 11.3 16.5 0.00 0.00 0.00 30 1016.4
20260507181551 66 232 10.4 19.1 0.00 0.00 0.00 35 1016.4
20260507180051 66 286 7.8 14.8 0.00 0.00 0.00 36 1016.6
20260507174552 65 243 12.2 18.2 0.00 0.00 0.00 33 1016.5
20260507173050 64 219 11.3 19.1 0.00 0.00 0.00 37 1016.5
20260507171551 63 209 11.3 17.4 0.00 0.00 0.00 38 1016.5
20260507164600 62 227 9.6 13.9 0.00 0.00 0.00 49 1016.5
20260507163059 61 221 7.0 12.2 0.00 0.00 0.00 51 1016.6
20260507161558 59 219 9.6 14.8 0.00 0.00 0.00 56 1016.5
20260507160055 58 254 7.0 11.3 0.00 0.00 0.00 61 1016.6
20260507154559 57 210 7.0 12.2 0.00 0.00 0.00 63 1016.8
20260507153106 57 221 7.8 12.2 0.00 0.00 0.00 62 1017.0
20260507151550 56 245 7.8 12.2 0.00 0.00 0.00 65 1017.1
20260507150056 54 252 7.0 8.7 0.00 0.00 0.00 67 1017.0
20260507144551 54 212 6.1 10.4 0.00 0.00 0.00 69 1016.9
20260507143057 53 257 6.1 11.3 0.00 0.00 0.00 72 1016.9
20260507141553 52 225 7.0 13.0 0.00 0.00 0.00 75 1016.5
20260507140048 51 211 8.7 13.0 0.00 0.00 0.00 76 1016.4
20260507134552 50 243 7.0 11.3 0.00 0.00 0.00 78 1016.6
20260507133115 49 242 7.8 12.2 0.00 0.00 0.00 79 1016.6
20260507131552 50 224 9.6 14.8 0.00 0.00 0.00 78 1016.4
20260507130107 49 254 7.0 10.4 0.00 0.00 0.00 79 1016.4
20260507124550 49 209 7.0 10.4 0.00 0.00 0.00 80 1016.4
20260507123054 49 203 7.8 10.4 0.00 0.00 0.00 79 1016.4
20260507121605 50 193 2.6 6.1 0.00 0.00 0.00 76 1016.8
20260507120100 50 0 0.0 2.6 0.00 0.00 0.00 76 1017.0
20260507114633 51 0 1.7 6.1 0.00 0.00 0.00 74 1016.9
20260507113049 52 265 4.3 9.6 0.00 0.00 0.00 73 1016.7
20260507111548 52 254 4.3 7.0 0.00 0.00 0.00 72 1016.6
20260507110050 53 191 5.2 7.8 0.00 0.00 0.00 71 1016.4
20260507104552 54 263 5.2 10.4 0.00 0.00 0.00 70 1016.5
20260507103048 54 236 6.1 8.7 0.00 0.00 0.00 70 1016.4
20260507101549 55 231 5.2 9.6 0.00 0.00 0.00 68 1016.6
20260507100049 54 194 4.3 7.8 0.00 0.00 0.00 69 1016.5
20260507094550 55 212 3.5 7.0 0.00 0.00 0.00 68 1016.6
20260507093049 56 202 7.0 11.3 0.00 0.00 0.00 67 1016.4
20260507091552 55 197 5.2 9.6 0.00 0.00 0.00 68 1016.5
20260507090051 55 196 4.3 6.1 0.00 0.00 0.00 69 1016.5
20260507084557 56 214 4.3 7.0 0.00 0.00 0.00 68 1016.8
20260507083050 56 229 4.3 8.7 0.00 0.00 0.00 66 1016.6
20260507081552 56 254 4.3 9.6 0.00 0.00 0.00 66 1016.7
20260507080117 57 231 7.0 10.4 0.00 0.00 0.00 64 1016.6
20260507074548 57 227 8.7 13.0 0.00 0.00 0.00 64 1016.5
20260507073059 58 235 9.6 15.6 0.00 0.00 0.00 62 1016.4
20260507071549 58 236 8.7 13.0 0.00 0.00 0.00 59 1016.4
20260507070054 59 193 9.6 16.5 0.00 0.00 0.00 57 1016.6
20260507064555 59 248 11.3 20.0 0.00 0.00 0.00 54 1016.6
20260507063057 60 252 13.9 23.5 0.00 0.00 0.00 53 1016.5
20260507061554 60 235 9.6 17.4 0.00 0.00 0.00 52 1016.9
20260507060051 60 194 9.6 18.2 0.00 0.00 0.00 51 1017.0
20260507054552 60 198 7.8 15.6 0.00 0.00 0.00 51 1017.2
20260507053047 60 239 12.2 18.2 0.00 0.00 0.00 51 1017.0
20260507051552 61 204 10.4 20.0 0.00 0.00 0.00 49 1017.0
20260507050051 61 233 7.8 15.6 0.00 0.00 0.00 49 1017.1
20260507044548 61 225 7.0 12.2 0.00 0.00 0.00 49 1017.1